Waarnemingen

Advertentie
Mijn weer
Topcliffe, Groot Brittannië (3265): temperatuur & dauwpunt: 18.02.2018 23:00:00 - 24.02.2018 23:00:00 (GMT)Topcliffe, Groot Brittannië (3265): windsnelheid & windstoten: 18.02.2018 23:00:00 - 24.02.2018 23:00:00 (GMT)Topcliffe, Groot Brittannië (3265): windrichting: 18.02.2018 23:00:00 - 24.02.2018 23:00:00 (GMT)Topcliffe, Groot Brittannië (3265): luchtdruk: 18.02.2018 23:00:00 - 24.02.2018 23:00:00 (GMT)Topcliffe, Groot Brittannië (3265): zicht: 18.02.2018 23:00:00 - 24.02.2018 23:00:00 (GMT)Topcliffe, Groot Brittannië (3265): neerslag: 18.02.2018 23:00:00 - 24.02.2018 23:00:00 (GMT)
Datum & Tijd tt [°C] td [°C] ff [km/u] ff [kn] fx [km/u] fx [kn] dd ppp [hPa] vv [km] rr [mm]
24.02.2018 23:00:00 2,3 -0,4 18 10 - - OZO 1029,8 17 0,0
24.02.2018 22:00:00 2,1 -0,3 16 9 - - OZO 1029,4 12 0,0
24.02.2018 21:00:00 0,5 -1,1 16 9 - - OZO 1029,0 12 0,0
24.02.2018 20:00:00 0,4 -1,0 16 9 - - O 1028,6 10 0,0
24.02.2018 19:00:00 0,9 -1,1 16 9 - - OZO 1028,3 10 0,0
24.02.2018 18:00:00 1,5 -1,6 18 10 - - OZO 1027,6 16 0,0
24.02.2018 17:00:00 3,4 -1,0 22 12 - - OZO 1027,1 18 0,0
24.02.2018 16:00:00 5,1 -1,0 28 15 - - OZO 1026,6 24 0,0
24.02.2018 15:00:00 6,1 -0,9 29 16 - - OZO 1026,5 16 0,0
24.02.2018 14:00:00 6,4 -3,2 29 16 - - OZO 1026,4 27 0,0
24.02.2018 13:00:00 6,2 -2,5 26 14 - - ZO 1026,5 15 0,0
24.02.2018 12:00:00 5,2 -1,8 28 15 - - OZO 1026,7 12 0,0
24.02.2018 11:00:00 4,4 -1,1 26 14 - - ZO 1026,6 14 0,0
24.02.2018 10:00:00 3,7 -0,4 22 12 - - OZO 1026,3 17 0,0
24.02.2018 09:00:00 1,6 -0,7 8 4 - - OZO 1026,0 9 0,0
24.02.2018 08:00:00 -0,9 -2,2 11 6 - - OZO 1025,4 7 0,0
24.02.2018 07:00:00 -2,3 -3,3 13 7 - - O 1024,7 8 0,0
24.02.2018 06:00:00 -1,4 -3,3 11 6 - - OZO 1024,2 10 0,0
24.02.2018 05:00:00 0,7 -2,1 16 9 - - OZO 1023,9 14 0,0
24.02.2018 04:00:00 0,4 -2,2 13 7 - - OZO 1023,8 11 0,0
24.02.2018 03:00:00 1,2 -2,1 13 7 - - ZO 1023,6 12 0,0
24.02.2018 02:00:00 1,8 -2,0 18 10 - - ZO 1023,7 17 0,0
24.02.2018 01:00:00 1,7 -2,0 16 9 - - ZO 1023,5 17 0,0
24.02.2018 00:00:00 1,7 -2,1 21 11 - - ZO 1023,7 23 0,0
23.02.2018 23:00:00 1,5 -2,1 18 10 - - ZO 1023,5 30 0,0
23.02.2018 22:00:00 1,5 -2,2 13 7 - - OZO 1023,5 40 0,0
23.02.2018 21:00:00 1,6 -2,3 15 8 - - ZO 1023,3 35 0,0
23.02.2018 20:00:00 1,8 -2,3 18 10 - - ZO 1023,2 40 0,0
23.02.2018 19:00:00 1,9 -2,5 16 9 - - ZO 1023,1 45 0,0
23.02.2018 18:00:00 2,5 -1,9 24 13 - - OZO 1023,0 30 0,0
23.02.2018 17:00:00 3,1 -1,1 18 10 - - OZO 1023,0 19 0,0
23.02.2018 16:00:00 3,5 -1,4 22 12 - - ZO 1023,1 10 0,0
23.02.2018 15:00:00 3,9 -1,3 24 13 - - ZO 1023,4 10 0,0
23.02.2018 14:00:00 4,2 1,1 16 9 - - ZO 1023,6 10 0,0
23.02.2018 13:00:00 3,9 0,9 16 9 - - ZO 1024,0 10 0,0
23.02.2018 12:00:00 3,3 1,4 8 4 - - Z 1024,5 8 0,0
23.02.2018 11:00:00 1,7 0,3 4 2 - - WNW 1024,8 5 0,0
23.02.2018 10:00:00 0,2 -0,6 5 3 - - NW 1025,1 4,3 0,0
23.02.2018 09:00:00 -0,5 -1,2 4 2 - - NW 1025,2 4,2 0,0
23.02.2018 08:00:00 -1,2 -1,9 5 3 - - NW 1025,1 4,0 0,0
23.02.2018 07:00:00 -2,0 -2,5 4 2 - - W 1025,2 4,3 0,0
23.02.2018 06:00:00 -3,2 -3,7 13 7 - - ZO 1024,9 3,8 0,0
23.02.2018 05:00:00 -2,2 -2,9 9 5 - - OZO 1024,9 4,0 0,0
23.02.2018 04:00:00 -1,7 -2,1 2 1 - - O 1025,1 5 0,0
23.02.2018 03:00:00 -3,2 -3,4 9 5 - - ZO 1025,3 2,9 0,0
23.02.2018 02:00:00 -4,6 -5,1 4 2 - - ZO 1025,7 0,1 0,0
23.02.2018 01:00:00 -3,0 -4,3 4 2 - - ZW 1025,7 2,1 0,0
23.02.2018 00:00:00 -1,8 -2,8 4 2 - - ZW 1025,5 6 0,0
22.02.2018 23:00:00 -2,8 -3,8 13 7 - - ZO 1025,4 6 0,0
22.02.2018 22:00:00 -2,0 -3,3 15 8 - - ZO 1025,4 7 0,0
22.02.2018 21:00:00 -1,4 -2,9 13 7 - - ZO 1025,6 8 0,0
22.02.2018 20:00:00 -2,2 -3,9 15 8 - - OZO 1025,6 6 0,0
22.02.2018 19:00:00 -1,0 -2,9 9 5 - - ZO 1025,5 8 0,0
22.02.2018 18:00:00 -0,3 -2,7 11 6 - - ZZO 1025,2 11 0,0
22.02.2018 17:00:00 2,1 -2,2 13 7 - - ZO 1024,8 10 0,0
22.02.2018 16:00:00 4,3 -1,7 18 10 - - ZZO 1025,0 10 0,0
22.02.2018 15:00:00 4,6 -1,4 18 10 - - ZO 1025,2 10 0,0
22.02.2018 14:00:00 4,4 -0,9 22 12 - - ZZO 1025,6 10 0,0
22.02.2018 13:00:00 5,1 -0,4 22 12 - - ZZO 1026,2 10 0,0
22.02.2018 12:00:00 4,7 0,0 21 11 - - ZO 1026,7 10 0,0
22.02.2018 11:00:00 3,7 1,8 15 8 - - Z 1027,1 8 0,0
22.02.2018 10:00:00 3,3 2,3 13 7 - - ZZO 1027,3 6 0,0
22.02.2018 09:00:00 1,9 1,7 5 3 - - ZO 1027,2 5 0,0
22.02.2018 08:00:00 0,8 0,7 8 4 - - ZO 1027,1 6 0,0
22.02.2018 07:00:00 -0,6 -0,7 5 3 - - OZO 1026,9 7 0,0
22.02.2018 06:00:00 -2,0 -2,3 4 2 - - OZO 1026,8 0,1 0,0
22.02.2018 05:00:00 -1,6 -2,4 4 2 - - Z 1026,8 4,4 0,0
22.02.2018 04:00:00 0,7 0,3 4 2 - - ONO 1026,9 2,6 0,0
22.02.2018 03:00:00 1,8 1,5 5 3 - - NW 1027,3 4,1 0,0
22.02.2018 02:00:00 0,4 0,0 4 2 - - NNW 1027,5 2,6 0,0
22.02.2018 01:00:00 1,4 1,0 8 4 - - NNW 1027,6 4,5 0,0
22.02.2018 00:00:00 2,2 1,5 9 5 - - NW 1027,9 5 0,0
21.02.2018 23:00:00 2,5 1,7 9 5 - - NW 1028,1 7 0,0
21.02.2018 22:00:00 2,2 1,6 9 5 - - WNW 1028,4 6 0,0
21.02.2018 21:00:00 2,3 1,4 9 5 - - WNW 1028,3 6 0,0
21.02.2018 20:00:00 3,2 1,8 9 5 - - WNW 1028,4 8 0,0
21.02.2018 19:00:00 4,3 2,2 8 4 - - NNW 1028,1 10 0,0
21.02.2018 18:00:00 4,3 2,2 8 4 - - NNO 1028,0 13 0,0
21.02.2018 17:00:00 5,4 1,7 13 7 - - NO 1027,7 13 0,0
21.02.2018 16:00:00 7,8 2,6 16 9 - - NNO 1027,7 10 0,0
21.02.2018 15:00:00 7,9 0,9 16 9 - - N 1027,8 10 0,0
21.02.2018 14:00:00 7,9 1,6 16 9 - - N 1028,3 10 0,0
21.02.2018 13:00:00 7,9 2,0 16 9 - - NNO 1029,0 10 0,0
21.02.2018 12:00:00 7,0 3,6 16 9 - - N 1029,4 10 0,0
21.02.2018 11:00:00 6,3 3,6 13 7 - - NNW 1029,8 10 0,0
21.02.2018 10:00:00 4,7 2,9 16 9 - - N 1030,0 10 0,0
21.02.2018 09:00:00 4,3 2,5 18 10 - - NNW 1029,8 10 0,0
21.02.2018 08:00:00 4,2 2,8 13 7 - - NW 1029,4 10 0,0
21.02.2018 07:00:00 4,2 2,9 16 9 - - NNW 1029,0 10 0,0
21.02.2018 06:00:00 4,3 3,1 13 7 - - WNW 1028,9 11 0,0
21.02.2018 05:00:00 4,0 2,9 13 7 - - N 1029,1 9 0,2
21.02.2018 04:00:00 4,9 4,3 13 7 - - NNW 1029,2 6 0,0
21.02.2018 03:00:00 4,9 4,0 11 6 - - NW 1029,2 8 0,0
21.02.2018 02:00:00 4,9 4,0 16 9 - - NNW 1029,1 9 0,0
21.02.2018 01:00:00 4,9 4,1 11 6 - - N 1028,8 13 0,0
21.02.2018 00:00:00 5,0 3,5 9 5 - - NW 1028,8 27 0,0
20.02.2018 23:00:00 5,5 3,6 8 4 - - NNW 1028,3 30 0,0
20.02.2018 22:00:00 5,5 3,8 11 6 - - N 1028,0 24 0,0
20.02.2018 21:00:00 5,8 4,0 26 14 - - N 1027,3 15 0,0
20.02.2018 20:00:00 5,9 3,9 31 17 48 26 N 1026,8 24 0,2
20.02.2018 19:00:00 6,2 4,7 39 21 57 31 N 1026,2 5 0,0
20.02.2018 18:00:00 7,7 2,6 37 20 57 31 N 1025,6 23 0,0
20.02.2018 17:00:00 8,0 2,7 28 15 46 25 N 1024,9 10 0,0
20.02.2018 16:00:00 8,7 2,5 18 10 - - N 1024,5 10 0,0
20.02.2018 15:00:00 9,0 2,3 28 15 46 25 N 1023,9 10 0,0
20.02.2018 14:00:00 9,0 2,4 31 17 - - N 1023,5 10 0,0
20.02.2018 13:00:00 8,7 2,8 34 18 55 30 NNW 1023,1 10 0,0
20.02.2018 12:00:00 8,7 3,0 34 18 52 28 NNW 1022,8 10 0,0
20.02.2018 11:00:00 8,7 3,6 31 17 - - NNW 1022,4 10 0,0
20.02.2018 10:00:00 7,5 3,8 24 13 - - NW 1022,2 10 0,0
20.02.2018 09:00:00 5,5 2,9 21 11 - - NNW 1021,7 10 0,0
20.02.2018 08:00:00 5,6 3,0 21 11 - - NNW 1021,2 27 0,0
20.02.2018 07:00:00 6,0 2,6 28 15 - - NW 1020,2 26 0,0
20.02.2018 06:00:00 6,6 2,8 29 16 - - NW 1019,1 40 0,0
20.02.2018 05:00:00 7,3 5,4 21 11 - - NW 1018,9 45 0,6
20.02.2018 04:00:00 7,3 6,8 15 8 - - WNW 1018,6 11 0,2
20.02.2018 03:00:00 6,3 6,2 9 5 - - WNW 1018,2 3,0 0,0
20.02.2018 02:00:00 5,4 5,3 9 5 - - W 1018,3 0,4 0,0
20.02.2018 01:00:00 6,0 5,8 2 1 - - W 1018,0 0,3 0,0
20.02.2018 00:00:00 7,0 6,9 8 4 - - NNW 1017,9 3,5 0,2
19.02.2018 23:00:00 7,0 6,8 8 4 - - NNW 1017,9 3,2 0,0
19.02.2018 22:00:00 7,2 7,0 9 5 - - NW 1017,9 2,1 0,4
19.02.2018 21:00:00 7,5 7,3 9 5 - - NW 1017,8 1,9 0,4
19.02.2018 20:00:00 8,0 8,0 9 5 - - NW 1017,5 2,2 0,4
19.02.2018 19:00:00 8,4 8,2 8 4 - - NNW 1017,2 2,0 0,2
19.02.2018 18:00:00 8,9 8,7 8 4 - - N 1016,8 1,6 0,2
19.02.2018 17:00:00 9,4 9,1 5 3 - - NW 1016,5 2,2 0,0
19.02.2018 16:00:00 9,6 9,3 8 4 - - N 1016,3 4,3 0,2
19.02.2018 15:00:00 9,6 9,2 8 4 - - N 1016,0 3,9 0,0
19.02.2018 14:00:00 9,4 9,1 5 3 - - NNW 1015,7 7 0,0
19.02.2018 13:00:00 8,9 8,7 5 3 - - NNW 1015,8 4,7 0,2
19.02.2018 12:00:00 8,4 8,3 4 2 - - N 1015,8 2,7 0,4
19.02.2018 11:00:00 7,4 7,3 2 1 - - NO 1015,6 1,6 0,2
19.02.2018 10:00:00 6,8 6,6 2 1 - - OZO 1015,3 1,4 0,4
19.02.2018 09:00:00 6,3 6,2 2 1 - - NNW 1015,4 1,2 0,2
19.02.2018 08:00:00 6,0 5,9 4 2 - - ZW 1015,3 1,1 0,2
19.02.2018 07:00:00 6,0 5,9 5 3 - - O 1015,2 1,1 0,8
19.02.2018 06:00:00 5,8 5,7 8 4 - - O 1014,9 0,9 1,0
19.02.2018 05:00:00 5,8 5,7 9 5 - - OZO 1014,9 0,9 1,0
19.02.2018 04:00:00 5,9 5,7 8 4 - - ZZO 1015,1 1,1 0,4
19.02.2018 03:00:00 5,7 5,6 11 6 - - ZZO 1015,5 1,1 0,4
19.02.2018 02:00:00 5,5 5,3 9 5 - - ZO 1016,1 1,3 0,0
19.02.2018 01:00:00 5,4 5,2 15 8 - - ZO 1016,2 1,5 0,0
19.02.2018 00:00:00 5,4 5,2 11 6 - - ZO 1017,1 1,6 0,4
18.02.2018 23:00:00 5,5 5,2 13 7 - - ZZO 1017,3 1,9 0,2

tt = temperatuur
td = dauwpunt
ff = windsnelheid
fx = windstoten
dd = windrichting
ppp = luchtdruk
vv = zicht
rr = neerslag

Weerstations in de omgeving